Hourly Weather Bolshie Memi

Today, 20 June, Sunday

Time Temperature Precipitation Wind Pressure Humidity
00:00 +18°C° 0 mm 3 mps 754 mmHg 90%
01:00 +18°C° 0 mm 3 mps 754 mmHg 91%
02:00 +17°C° 0 mm 3 mps 754 mmHg 91%
03:00 +17°C° 0 mm 3 mps 754 mmHg 91%
04:00 +18°C° 0 mm 3 mps 754 mmHg 88%
05:00 +20°C° 0 mm 3 mps 754 mmHg 84%
06:00 +21°C° 0 mm 3 mps 754 mmHg 80%
07:00 +24°C° 0 mm 3 mps 754 mmHg 75%
08:00 +25°C° 0 mm 4 mps 754 mmHg 70%
09:00 +27°C° 0 mm 4 mps 755 mmHg 65%
10:00 +28°C° 0 mm 4 mps 755 mmHg 62%
11:00 +29°C° 0 mm 4 mps 755 mmHg 59%
12:00 +29°C° 0 mm 4 mps 755 mmHg 56%
13:00 +30°C° 0 mm 4 mps 755 mmHg 55%
14:00 +30°C° 0 mm 3 mps 755 mmHg 55%
15:00 +30°C° 0 mm 3 mps 754 mmHg 55%
16:00 +30°C° 0 mm 3 mps 754 mmHg 60%
17:00 +29°C° 0 mm 3 mps 754 mmHg 65%
18:00 +28°C° 0 mm 3 mps 754 mmHg 70%
19:00 +27°C° 0 mm 2 mps 754 mmHg 74%
20:00 +25°C° 0 mm 2 mps 754 mmHg 79%
21:00 +23°C° 0 mm 1 mps 754 mmHg 84%
22:00 +23°C° 0 mm 1 mps 754 mmHg 86%
23:00 +22°C° 0 mm 1 mps 754 mmHg 87%

Tomorrow, 21 June, Monday

Time Temperature Precipitation Wind Pressure Humidity
00:00 +22°C° 0 mm 1 mps 754 mmHg 88%
01:00 +22°C° 0 mm 1 mps 754 mmHg 88%
02:00 +21°C° 0 mm 1 mps 755 mmHg 88%
03:00 +21°C° 0 mm 1 mps 755 mmHg 89%
04:00 +21°C° 0 mm 2 mps 755 mmHg 86%
05:00 +23°C° 0 mm 2 mps 755 mmHg 84%
06:00 +24°C° 0 mm 2 mps 755 mmHg 82%
07:00 +25°C° 0 mm 3 mps 755 mmHg 76%
08:00 +26°C° 0 mm 3 mps 755 mmHg 71%
09:00 +28°C° 0 mm 3 mps 755 mmHg 65%
10:00 +29°C° 0 mm 3 mps 755 mmHg 62%
11:00 +29°C° 0 mm 3 mps 755 mmHg 59%
12:00 +30°C° 0 mm 3 mps 755 mmHg 55%
13:00 +30°C° 0 mm 3 mps 755 mmHg 54%
14:00 +31°C° 0 mm 3 mps 755 mmHg 52%
15:00 +31°C° 0 mm 3 mps 755 mmHg 51%
16:00 +30°C° 0 mm 3 mps 754 mmHg 56%
17:00 +30°C° 0 mm 2 mps 754 mmHg 60%
18:00 +29°C° 0 mm 2 mps 754 mmHg 65%
19:00 +28°C° 0 mm 2 mps 754 mmHg 70%
20:00 +26°C° 0 mm 2 mps 754 mmHg 74%
21:00 +24°C° 0 mm 2 mps 754 mmHg 79%
22:00 +24°C° 0 mm 1 mps 754 mmHg 81%
23:00 +23°C° 0 mm 1 mps 754 mmHg 84%

Day after tomorrow, 22 June, Tuesday

Time Temperature Precipitation Wind Pressure Humidity
00:00 +23°C° 0 mm 1 mps 755 mmHg 87%
01:00 +21°C° 0 mm 2 mps 755 mmHg 88%
02:00 +21°C° 0 mm 2 mps 755 mmHg 89%
03:00 +21°C° 0 mm 2 mps 755 mmHg 90%
04:00 +23°C° 0 mm 2 mps 755 mmHg 87%
05:00 +24°C° 0 mm 2 mps 755 mmHg 84%
06:00 +25°C° 0 mm 2 mps 755 mmHg 80%
07:00 +26°C° 0 mm 2 mps 755 mmHg 75%
08:00 +28°C° 0 mm 2 mps 755 mmHg 70%
09:00 +29°C° 0 mm 3 mps 755 mmHg 64%
10:00 +30°C° 0.3 mm 3 mps 755 mmHg 61%
11:00 +30°C° 0.3 mm 3 mps 755 mmHg 58%
12:00 +31°C° 0.3 mm 3 mps 755 mmHg 54%
13:00 +31°C° 0 mm 3 mps 755 mmHg 53%
14:00 +33°C° 0 mm 3 mps 755 mmHg 51%
15:00 +33°C° 0 mm 3 mps 755 mmHg 49%
16:00 +31°C° 0 mm 3 mps 755 mmHg 54%
17:00 +31°C° 0 mm 2 mps 754 mmHg 59%
18:00 +30°C° 0 mm 2 mps 754 mmHg 64%
19:00 +28°C° 0 mm 2 mps 754 mmHg 70%
20:00 +26°C° 0 mm 2 mps 754 mmHg 75%
21:00 +25°C° 0 mm 2 mps 754 mmHg 81%
22:00 +24°C° 0 mm 2 mps 754 mmHg 82%
23:00 +24°C° 0 mm 2 mps 754 mmHg 83%

23 June, Wednesday

Time Temperature Precipitation Wind Pressure Humidity
00:00 +23°C° 0 mm 2 mps 754 mmHg 84%
01:00 +23°C° 0 mm 2 mps 754 mmHg 85%
02:00 +23°C° 0 mm 2 mps 754 mmHg 85%
03:00 +21°C° 0 mm 2 mps 754 mmHg 86%
04:00 +23°C° 0 mm 2 mps 755 mmHg 83%
05:00 +24°C° 0 mm 2 mps 755 mmHg 81%
06:00 +25°C° 0 mm 2 mps 755 mmHg 78%
07:00 +26°C° 0 mm 2 mps 755 mmHg 72%
08:00 +28°C° 0 mm 2 mps 755 mmHg 66%
09:00 +29°C° 0 mm 3 mps 755 mmHg 61%
10:00 +30°C° 0 mm 3 mps 755 mmHg 57%
11:00 +31°C° 0 mm 3 mps 755 mmHg 54%
12:00 +33°C° 0 mm 3 mps 755 mmHg 50%
13:00 +33°C° 0 mm 3 mps 755 mmHg 48%
14:00 +33°C° 0 mm 3 mps 755 mmHg 46%
15:00 +34°C° 0 mm 3 mps 755 mmHg 44%
16:00 +33°C° 0 mm 3 mps 754 mmHg 50%
17:00 +31°C° 0 mm 3 mps 754 mmHg 56%
18:00 +30°C° 0 mm 2 mps 754 mmHg 62%
19:00 +29°C° 0 mm 2 mps 754 mmHg 65%
20:00 +27°C° 0 mm 2 mps 754 mmHg 68%
21:00 +25°C° 0 mm 2 mps 754 mmHg 71%
22:00 +25°C° 0 mm 2 mps 754 mmHg 73%
23:00 +25°C° 0 mm 2 mps 754 mmHg 76%

24 June, Thursday

Time Temperature Precipitation Wind Pressure Humidity
00:00 +24°C° 0 mm 2 mps 754 mmHg 78%
01:00 +24°C° 0.1 mm 1 mps 754 mmHg 81%
02:00 +23°C° 0.1 mm 1 mps 754 mmHg 83%
03:00 +22°C° 0.1 mm 1 mps 754 mmHg 86%
04:00 +23°C° 0.3 mm 1 mps 754 mmHg 84%
05:00 +24°C° 0.3 mm 2 mps 754 mmHg 82%
06:00 +25°C° 0.3 mm 2 mps 754 mmHg 79%
07:00 +26°C° 0 mm 2 mps 754 mmHg 74%
08:00 +28°C° 0 mm 3 mps 753 mmHg 69%
09:00 +29°C° 0 mm 3 mps 753 mmHg 64%
10:00 +30°C° 0 mm 3 mps 753 mmHg 61%
11:00 +31°C° 0 mm 3 mps 753 mmHg 57%
12:00 +33°C° 0 mm 3 mps 753 mmHg 53%
13:00 +34°C° 0 mm 3 mps 753 mmHg 51%
14:00 +34°C° 0 mm 3 mps 753 mmHg 49%
15:00 +34°C° 0 mm 3 mps 753 mmHg 48%
16:00 +34°C° 0 mm 2 mps 752 mmHg 53%
17:00 +32°C° 0 mm 2 mps 752 mmHg 58%
18:00 +31°C° 0 mm 2 mps 752 mmHg 63%
19:00 +30°C° 0 mm 2 mps 752 mmHg 68%
20:00 +28°C° 0 mm 2 mps 752 mmHg 73%
21:00 +26°C° 0 mm 2 mps 752 mmHg 79%
22:00 +25°C° 0 mm 2 mps 751 mmHg 81%
23:00 +25°C° 0 mm 2 mps 751 mmHg 83%

25 June, Friday

Time Temperature Precipitation Wind Pressure Humidity
00:00 +24°C° 0 mm 2 mps 751 mmHg 85%
01:00 +24°C° 0 mm 2 mps 751 mmHg 86%
02:00 +23°C° 0 mm 2 mps 751 mmHg 86%
03:00 +23°C° 0 mm 1 mps 751 mmHg 87%
04:00 +24°C° 0 mm 2 mps 751 mmHg 83%
05:00 +25°C° 0 mm 2 mps 751 mmHg 79%
06:00 +26°C° 0 mm 2 mps 751 mmHg 75%
07:00 +27°C° 0 mm 3 mps 751 mmHg 70%
08:00 +29°C° 0 mm 3 mps 751 mmHg 66%
09:00 +30°C° 0 mm 4 mps 751 mmHg 61%
10:00 +32°C° 0 mm 4 mps 751 mmHg 59%
11:00 +32°C° 0 mm 4 mps 751 mmHg 56%
12:00 +33°C° 0 mm 4 mps 751 mmHg 54%
13:00 +33°C° 0 mm 4 mps 750 mmHg 53%
14:00 +34°C° 0 mm 4 mps 750 mmHg 52%
15:00 +34°C° 0 mm 5 mps 750 mmHg 52%
16:00 +33°C° 0 mm 4 mps 750 mmHg 57%
17:00 +32°C° 0 mm 4 mps 749 mmHg 62%
18:00 +30°C° 0 mm 4 mps 749 mmHg 67%
19:00 +29°C° 0 mm 3 mps 749 mmHg 72%
20:00 +27°C° 0 mm 3 mps 749 mmHg 77%
21:00 +26°C° 0 mm 2 mps 749 mmHg 82%
22:00 +26°C° 0 mm 2 mps 749 mmHg 80%
23:00 +26°C° 0 mm 2 mps 749 mmHg 79%
Show more